Hourly Data Report for September 24, 2019

All times are specified in Local Standard Time (LST). Add 1 hour to adjust for Daylight Saving Time where and when it is observed.

EUREKA CLIMATE
NUNAVUT
Current Station Operator: ECCC - MSC

79°59'21.000" N
85°56'02.000" W
10.00 m
2401199
71613
NEK

Download Data

Hourly Data (September 2019)
Hourly Data Report for September 24, 2019
TIME Temp Definition
°C
Dew Point Definition
°C
Rel Hum Definition
%
Wind Dir Definition
10's deg

Wind Spd Definition
km/h
Visibility Definition
km
Stn Press Definition
kPa
Hmdx Definition


Wind Chill Definition


Weather Definition


00:00 -9.3 -10.3 92 18 10   99.35   -14 LegendNANA
01:00 -9.3 -10.5 91 18 6   99.35   -13 LegendNANA
02:00 -9.2 -10.2 92 20 8   99.36   -14 LegendNANA
03:00 -9.1 -10.0 93 19 13   99.39   -15 LegendNANA
04:00 -8.8 -9.9 92 15 7   99.40   -13 LegendNANA
05:00 -8.6 -9.7 92 11 4   99.42   -11 LegendNANA
06:00 -8.2 -9.4 91 9 6   99.43   -11 LegendNANA
07:00 -7.9 -9.4 89 4 6   99.45   -11 LegendNANA
08:00 -7.5 -8.9 90 15 8   99.50   -12 LegendNANA
09:00 -7.1 -8.4 90 12 15   99.49   -13 LegendNANA
10:00 -6.3 -8.6 84 15 19   99.51   -13 LegendNANA
11:00 -6.0 -8.4 83 14 15   99.54   -12 LegendNANA
12:00 -5.0 -7.4 83 15 28   99.54   -13 LegendNANA
13:00 -5.2 -7.6 83 17 25   99.58   -13 LegendNANA
14:00 -5.1 -9.1 73 16 23   99.61   -12 LegendNANA
15:00 -5.2 -9.8 70 16 24   99.65   -12 LegendNANA
16:00 -5.6 -8.2 82 17 28   99.66   -14 LegendNANA
17:00 -5.7 -9.4 75 15 30   99.69   -14 LegendNANA
18:00 -6.1 -9.9 75 15 30   99.74   -14 LegendNANA
19:00 -6.7 -9.6 80 16 22   99.79   -14 LegendNANA
20:00 -6.7 -10.0 77 16 28   99.81   -15 LegendNANA
21:00 -6.8 -10.1 77 17 27   99.86   -15 LegendNANA
22:00 -7.1 -10.3 78 16 26   99.89   -15 LegendNANA
23:00 -7.2 -10.4 77 16 24   99.92   -15 LegendNANA

Notes on Data Quality.

Legend

  • E = Estimated
  • M = Missing
  • NA = Not Available
Date modified: